| time (UTC) | temp F | wind direction | speed MPH | gust MPH | rain 1hr in | rain 24hr in | rain mn in | humidity % | barometer mb |
| 20260504151027 | 67 | 284 | 1.0 | 4.0 | 0.00 | 0.00 | 0.00 | 42 | 1020.8 |
| 20260504150849 | 67 | 289 | 1.0 | 4.0 | 0.00 | 0.00 | 0.00 | 42 | 1016.6 |
| 20260504150345 | 66 | 235 | 0.0 | 4.0 | 0.00 | 0.00 | 0.00 | 41 | 1016.6 |
| 20260504141316 | 61 | 233 | 0.0 | 2.0 | 0.00 | 0.00 | 0.00 | 52 | 1016.9 |
| 20260504141055 | 61 | 307 | 3.0 | 6.0 | 0.00 | 0.00 | 0.00 | 52 | 1021.2 |
| 20260504140812 | 61 | 93 | 4.0 | 7.0 | 0.00 | 0.00 | 0.00 | 51 | 1017.2 |
| 20260504140308 | 62 | 220 | 1.0 | 6.0 | 0.00 | 0.00 | 0.00 | 52 | 1017.2 |
| 20260504130737 | 57 | 261 | 2.0 | 6.0 | 0.00 | 0.00 | 0.00 | 59 | 1017.4 |
| 20260504130233 | 57 | 342 | 2.0 | 6.0 | 0.00 | 0.00 | 0.00 | 59 | 1017.4 |
| 20260504120156 | 52 | 294 | 1.0 | 1.0 | 0.00 | 0.00 | 0.00 | 69 | 1017.8 |
| 20260504110624 | 50 | 274 | 0.0 | 0.0 | 0.00 | 0.00 | 0.00 | 74 | 1017.9 |
| 20260504110120 | 49 | 255 | 0.0 | 0.0 | 0.00 | 0.00 | 0.00 | 75 | 1017.9 |
| 20260504100545 | 50 | 261 | 0.0 | 0.0 | 0.00 | 0.00 | 0.00 | 71 | 1017.9 |
| 20260504081939 | 50 | 259 | 0.0 | 2.0 | 0.00 | 0.00 | 0.00 | 76 | 1018.1 |
| 20260504081436 | 51 | 245 | 0.0 | 1.0 | 0.00 | 0.00 | 0.00 | 77 | 1018.1 |
| 20260504080932 | 50 | 252 | 0.0 | 1.0 | 0.00 | 0.00 | 0.00 | 78 | 1018.0 |
| 20260504080429 | 51 | 241 | 0.0 | 1.0 | 0.00 | 0.00 | 0.00 | 79 | 1018.3 |
| 20260504070357 | 47 | 33 | 0.0 | 0.0 | 0.00 | 0.00 | 0.00 | 85 | 1018.3 |
| 20260504050744 | 46 | 108 | 0.0 | 0.0 | 0.00 | 0.00 | 0.00 | 88 | 1018.4 |
| 20260504050241 | 46 | 108 | 0.0 | 0.0 | 0.00 | 0.00 | 0.00 | 88 | 1018.4 |
| 20260504045738 | 46 | 108 | 0.0 | 1.0 | 0.00 | 0.00 | 0.00 | 88 | 1018.3 |
| 20260504045233 | 46 | 108 | 0.0 | 1.0 | 0.00 | 0.00 | 0.00 | 88 | 1018.2 |
| 20260504044731 | 45 | 108 | 0.0 | 0.0 | 0.00 | 0.00 | 0.00 | 88 | 1018.1 |
| 20260504044229 | 45 | 107 | 1.0 | 1.0 | 0.00 | 0.00 | 0.00 | 89 | 1018.1 |
| 20260504043725 | 45 | 211 | 0.0 | 0.0 | 0.00 | 0.00 | 0.00 | 89 | 1018.1 |
| 20260504043222 | 45 | 211 | 0.0 | 0.0 | 0.00 | 0.00 | 0.00 | 89 | 1018.2 |
| 20260504042720 | 44 | 211 | 0.0 | 0.0 | 0.00 | 0.00 | 0.00 | 89 | 1018.1 |
| 20260504042216 | 44 | 211 | 0.0 | 0.0 | 0.00 | 0.00 | 0.00 | 89 | 1018.2 |
| 20260504041712 | 44 | 211 | 0.0 | 0.0 | 0.00 | 0.00 | 0.00 | 89 | 1018.3 |
| 20260504041208 | 43 | 211 | 0.0 | 0.0 | 0.00 | 0.00 | 0.00 | 90 | 1018.2 |
| 20260504040705 | 43 | 211 | 0.0 | 0.0 | 0.00 | 0.00 | 0.00 | 90 | 1018.1 |
| 20260504040202 | 43 | 211 | 0.0 | 1.0 | 0.00 | 0.00 | 0.00 | 90 | 1018.2 |
| 20260504035658 | 43 | 211 | 0.0 | 0.0 | 0.00 | 0.00 | 0.00 | 90 | 1018.1 |
| 20260504035156 | 43 | 211 | 0.0 | 0.0 | 0.00 | 0.00 | 0.00 | 90 | 1018.0 |
| 20260504034653 | 43 | 211 | 0.0 | 0.0 | 0.00 | 0.00 | 0.00 | 90 | 1018.2 |
| 20260504034150 | 43 | 211 | 0.0 | 0.0 | 0.00 | 0.00 | 0.00 | 90 | 1018.1 |
| 20260504033648 | 43 | 211 | 0.0 | 0.0 | 0.00 | 0.00 | 0.00 | 90 | 1018.2 |
| 20260504033145 | 43 | 211 | 0.0 | 0.0 | 0.00 | 0.00 | 0.00 | 89 | 1018.1 |
| 20260504032641 | 43 | 211 | 0.0 | 0.0 | 0.00 | 0.00 | 0.00 | 89 | 1018.2 |
| 20260504032139 | 43 | 211 | 0.0 | 0.0 | 0.00 | 0.00 | 0.00 | 89 | 1018.0 |
| 20260504031636 | 43 | 211 | 0.0 | 0.0 | 0.00 | 0.00 | 0.00 | 88 | 1018.0 |
| 20260504031132 | 43 | 211 | 0.0 | 0.0 | 0.00 | 0.00 | 0.00 | 88 | 1018.0 |
| 20260504030629 | 44 | 211 | 0.0 | 0.0 | 0.00 | 0.00 | 0.00 | 87 | 1017.8 |
| 20260504030125 | 44 | 211 | 0.0 | 0.0 | 0.00 | 0.00 | 0.00 | 87 | 1018.0 |
| 20260504025622 | 44 | 211 | 0.0 | 0.0 | 0.00 | 0.00 | 0.00 | 86 | 1018.1 |
| 20260504025119 | 44 | 211 | 0.0 | 0.0 | 0.00 | 0.00 | 0.00 | 85 | 1018.0 |
| 20260504024617 | 44 | 211 | 0.0 | 0.0 | 0.00 | 0.00 | 0.00 | 85 | 1018.0 |
| 20260504024113 | 44 | 211 | 0.0 | 0.0 | 0.00 | 0.00 | 0.00 | 84 | 1018.0 |
| 20260504023610 | 44 | 211 | 0.0 | 1.0 | 0.00 | 0.00 | 0.00 | 84 | 1018.0 |
| 20260504023105 | 44 | 211 | 0.0 | 0.0 | 0.00 | 0.00 | 0.00 | 83 | 1017.9 |
| 20260504022602 | 44 | 211 | 0.0 | 0.0 | 0.00 | 0.00 | 0.00 | 82 | 1017.9 |
| 20260504022058 | 45 | 234 | 0.0 | 0.0 | 0.00 | 0.00 | 0.00 | 82 | 1018.1 |
| 20260504021556 | 45 | 234 | 0.0 | 0.0 | 0.00 | 0.00 | 0.00 | 80 | 1018.0 |
| 20260504021053 | 45 | 235 | 0.0 | 0.0 | 0.00 | 0.00 | 0.00 | 80 | 1017.8 |
| 20260504020550 | 45 | 235 | 0.0 | 0.0 | 0.00 | 0.00 | 0.00 | 80 | 1017.9 |
| 20260504020046 | 45 | 235 | 0.0 | 0.0 | 0.00 | 0.00 | 0.00 | 79 | 1017.8 |
| 20260504015542 | 45 | 235 | 0.0 | 0.0 | 0.00 | 0.00 | 0.00 | 79 | 1017.5 |
| 20260504015038 | 45 | 237 | 0.0 | 0.0 | 0.00 | 0.00 | 0.00 | 78 | 1017.8 |
| 20260504014535 | 46 | 237 | 0.0 | 0.0 | 0.00 | 0.00 | 0.00 | 77 | 1017.6 |
| 20260504014032 | 46 | 237 | 0.0 | 0.0 | 0.00 | 0.00 | 0.00 | 76 | 1017.9 |
| 20260504013530 | 46 | 245 | 0.0 | 0.0 | 0.00 | 0.00 | 0.00 | 76 | 1017.9 |
| 20260504013026 | 46 | 245 | 0.0 | 0.0 | 0.00 | 0.00 | 0.00 | 76 | 1017.8 |
| 20260504012524 | 46 | 245 | 0.0 | 0.0 | 0.00 | 0.00 | 0.00 | 75 | 1017.8 |
| 20260504012021 | 46 | 245 | 0.0 | 0.0 | 0.00 | 0.00 | 0.00 | 75 | 1017.5 |
| 20260504011517 | 46 | 245 | 0.0 | 0.0 | 0.00 | 0.00 | 0.00 | 74 | 1017.3 |
| 20260504011013 | 47 | 245 | 0.0 | 0.0 | 0.00 | 0.00 | 0.00 | 73 | 1017.4 |
| 20260504010509 | 47 | 245 | 0.0 | 0.0 | 0.00 | 0.00 | 0.00 | 71 | 1017.4 |
| 20260504010005 | 47 | 251 | 0.0 | 0.0 | 0.00 | 0.00 | 0.00 | 71 | 1017.5 |
| 20260504005502 | 47 | 251 | 0.0 | 0.0 | 0.00 | 0.00 | 0.00 | 70 | 1017.4 |
| 20260504005000 | 48 | 251 | 0.0 | 0.0 | 0.00 | 0.00 | 0.00 | 69 | 1017.4 |
| 20260504004457 | 48 | 251 | 0.0 | 0.0 | 0.00 | 0.00 | 0.00 | 68 | 1017.3 |
| 20260504003954 | 49 | 251 | 0.0 | 0.0 | 0.00 | 0.00 | 0.00 | 67 | 1017.3 |
| 20260504003450 | 49 | 253 | 0.0 | 0.0 | 0.00 | 0.00 | 0.00 | 66 | 1017.3 |
| 20260504003032 | 50 | 0.0 | 0.0 | 0.00 | 0.00 | 0.00 | 65 | 1021.4 | |
| 20260504002947 | 49 | 253 | 0.0 | 0.0 | 0.00 | 0.00 | 0.00 | 65 | 1017.4 |
| 20260504002444 | 50 | 245 | 0.0 | 0.0 | 0.00 | 0.00 | 0.00 | 64 | 1017.3 |
| 20260504002020 | 51 | 0.0 | 0.0 | 0.00 | 0.00 | 0.00 | 61 | 1021.4 | |
| 20260504001942 | 51 | 245 | 0.0 | 0.0 | 0.00 | 0.00 | 0.00 | 61 | 1017.2 |
| 20260504001439 | 51 | 245 | 0.0 | 0.0 | 0.00 | 0.00 | 0.00 | 60 | 1017.3 |
| 20260504001110 | 52 | 0.0 | 0.0 | 0.00 | 0.00 | 0.00 | 58 | 1021.2 | |
| 20260504000935 | 52 | 245 | 0.0 | 0.0 | 0.00 | 0.00 | 0.00 | 58 | 1017.1 |
| 20260504000432 | 52 | 245 | 0.0 | 0.0 | 0.00 | 0.00 | 0.00 | 57 | 1017.0 |
| 20260504000041 | 53 | 0.0 | 0.0 | 0.00 | 0.00 | 0.00 | 55 | 1021.2 | |
| 20260503235930 | 53 | 245 | 0.0 | 0.0 | 0.00 | 0.00 | 0.00 | 55 | 1017.0 |
| 20260503235427 | 54 | 245 | 0.0 | 0.0 | 0.00 | 0.00 | 0.00 | 55 | 1017.0 |
| 20260503235031 | 54 | 0.0 | 0.0 | 0.00 | 0.00 | 0.00 | 53 | 1021.1 | |
| 20260503234925 | 54 | 245 | 0.0 | 0.0 | 0.00 | 0.00 | 0.00 | 53 | 1016.7 |
| 20260503234422 | 55 | 245 | 0.0 | 0.0 | 0.00 | 0.00 | 0.00 | 51 | 1016.8 |
| 20260503234022 | 56 | 0.0 | 0.0 | 0.00 | 0.00 | 0.00 | 50 | 1020.9 | |
| 20260503233920 | 56 | 245 | 0.0 | 0.0 | 0.00 | 0.00 | 0.00 | 49 | 1016.8 |
| 20260503233416 | 57 | 246 | 0.0 | 0.0 | 0.00 | 0.00 | 0.00 | 48 | 1016.6 |
| 20260503233052 | 57 | 0.0 | 0.0 | 0.00 | 0.00 | 0.00 | 47 | 1020.9 | |
| 20260503232913 | 57 | 246 | 0.0 | 0.0 | 0.00 | 0.00 | 0.00 | 46 | 1016.6 |
| 20260503232410 | 58 | 246 | 0.0 | 0.0 | 0.00 | 0.00 | 0.00 | 44 | 1016.7 |
| 20260503232041 | 58 | 246 | 0.0 | 2.0 | 0.00 | 0.00 | 0.00 | 44 | 1020.8 |
| 20260503231908 | 58 | 246 | 0.0 | 2.0 | 0.00 | 0.00 | 0.00 | 44 | 1016.6 |
| 20260503231405 | 59 | 251 | 1.0 | 4.0 | 0.00 | 0.00 | 0.00 | 39 | 1016.6 |
| 20260503231031 | 59 | 255 | 1.0 | 3.0 | 0.00 | 0.00 | 0.00 | 39 | 1020.9 |
| 20260503230901 | 59 | 233 | 1.0 | 2.0 | 0.00 | 0.00 | 0.00 | 39 | 1016.7 |
| 20260503230357 | 59 | 242 | 1.0 | 1.0 | 0.00 | 0.00 | 0.00 | 42 | 1016.8 |
| 20260503230023 | 60 | 239 | 0.0 | 2.0 | 0.00 | 0.00 | 0.00 | 38 | 1020.9 |
| 20260503225855 | 60 | 263 | 1.0 | 1.0 | 0.00 | 0.00 | 0.00 | 41 | 1016.7 |
| 20260503225351 | 60 | 259 | 1.0 | 2.0 | 0.00 | 0.00 | 0.00 | 35 | 1016.6 |
| 20260503225054 | 60 | 249 | 1.0 | 2.0 | 0.00 | 0.00 | 0.00 | 36 | 1020.9 |
| 20260503224848 | 60 | 247 | 1.0 | 3.0 | 0.00 | 0.00 | 0.00 | 37 | 1016.9 |
| 20260503224345 | 60 | 257 | 2.0 | 6.0 | 0.00 | 0.00 | 0.00 | 37 | 1016.7 |
| 20260503224044 | 61 | 241 | 2.0 | 3.0 | 0.00 | 0.00 | 0.00 | 37 | 1021.0 |
| 20260503223843 | 60 | 253 | 1.0 | 3.0 | 0.00 | 0.00 | 0.00 | 37 | 1016.7 |
| 20260503223340 | 61 | 259 | 3.0 | 6.0 | 0.00 | 0.00 | 0.00 | 35 | 1016.7 |
| 20260503223036 | 63 | 249 | 2.0 | 7.0 | 0.00 | 0.00 | 0.00 | 35 | 1021.0 |
| 20260503222835 | 63 | 258 | 1.0 | 3.0 | 0.00 | 0.00 | 0.00 | 35 | 1016.8 |
| 20260503222334 | 63 | 258 | 0.0 | 2.0 | 0.00 | 0.00 | 0.00 | 34 | 1016.8 |
| 20260503222026 | 63 | 252 | 2.0 | 3.0 | 0.00 | 0.00 | 0.00 | 34 | 1020.9 |
| 20260503221832 | 63 | 223 | 2.0 | 3.0 | 0.00 | 0.00 | 0.00 | 34 | 1016.8 |
| 20260503221331 | 62 | 313 | 0.0 | 0.0 | 0.00 | 0.00 | 0.00 | 33 | 1016.7 |
| 20260503221015 | 62 | 237 | 3.0 | 6.0 | 0.00 | 0.00 | 0.00 | 33 | 1021.1 |
| 20260503220821 | 62 | 260 | 5.0 | 6.0 | 0.00 | 0.00 | 0.00 | 33 | 1016.8 |
| 20260503220318 | 62 | 163 | 3.0 | 6.0 | 0.00 | 0.00 | 0.00 | 34 | 1016.9 |
| 20260503220045 | 62 | 250 | 4.0 | 9.0 | 0.00 | 0.00 | 0.00 | 34 | 1021.2 |
| 20260503215814 | 62 | 215 | 2.0 | 7.0 | 0.00 | 0.00 | 0.00 | 33 | 1016.9 |
| 20260503215311 | 62 | 213 | 1.0 | 4.0 | 0.00 | 0.00 | 0.00 | 35 | 1017.0 |
| 20260503215034 | 63 | 255 | 3.0 | 7.0 | 0.00 | 0.00 | 0.00 | 34 | 1021.1 |
| 20260503214809 | 63 | 246 | 5.0 | 8.0 | 0.00 | 0.00 | 0.00 | 33 | 1016.8 |
| 20260503214306 | 62 | 235 | 2.0 | 8.0 | 0.00 | 0.00 | 0.00 | 34 | 1016.9 |
| 20260503214023 | 63 | 256 | 3.0 | 7.0 | 0.00 | 0.00 | 0.00 | 34 | 1021.0 |
| 20260503213803 | 62 | 237 | 6.0 | 7.0 | 0.00 | 0.00 | 0.00 | 34 | 1016.9 |
| 20260503213300 | 63 | 243 | 2.0 | 4.0 | 0.00 | 0.00 | 0.00 | 34 | 1016.8 |
| 20260503213015 | 62 | 248 | 3.0 | 6.0 | 0.00 | 0.00 | 0.00 | 34 | 1021.0 |
| 20260503212757 | 62 | 230 | 2.0 | 6.0 | 0.00 | 0.00 | 0.00 | 34 | 1016.8 |
| 20260503212255 | 62 | 233 | 3.0 | 4.0 | 0.00 | 0.00 | 0.00 | 34 | 1016.8 |
| 20260503212047 | 62 | 259 | 2.0 | 4.0 | 0.00 | 0.00 | 0.00 | 34 | 1021.0 |
| 20260503211752 | 62 | 238 | 0.0 | 1.0 | 0.00 | 0.00 | 0.00 | 33 | 1016.8 |
| 20260503211249 | 61 | 258 | 4.0 | 7.0 | 0.00 | 0.00 | 0.00 | 34 | 1017.0 |
| 20260503211059 | 61 | 225 | 4.0 | 8.0 | 0.00 | 0.00 | 0.00 | 35 | 1021.1 |
| 20260503210744 | 61 | 257 | 5.0 | 8.0 | 0.00 | 0.00 | 0.00 | 34 | 1017.0 |
| 20260503210242 | 61 | 212 | 5.0 | 9.0 | 0.00 | 0.00 | 0.00 | 34 | 1016.7 |
| 20260503210031 | 62 | 248 | 4.0 | 8.0 | 0.00 | 0.00 | 0.00 | 34 | 1020.9 |
| 20260503205742 | 62 | 212 | 4.0 | 7.0 | 0.00 | 0.00 | 0.00 | 34 | 1016.7 |
| 20260503205239 | 62 | 276 | 4.0 | 8.0 | 0.00 | 0.00 | 0.00 | 35 | 1017.0 |
| 20260503205026 | 62 | 241 | 3.0 | 7.0 | 0.00 | 0.00 | 0.00 | 34 | 1021.1 |
| 20260503204735 | 62 | 228 | 2.0 | 6.0 | 0.00 | 0.00 | 0.00 | 34 | 1016.9 |
| 20260503204233 | 62 | 244 | 4.0 | 10.0 | 0.00 | 0.00 | 0.00 | 35 | 1016.8 |
| 20260503204017 | 62 | 267 | 3.0 | 6.0 | 0.00 | 0.00 | 0.00 | 34 | 1021.0 |
| 20260503203730 | 62 | 257 | 5.0 | 6.0 | 0.00 | 0.00 | 0.00 | 35 | 1016.8 |
| 20260503203227 | 62 | 234 | 4.0 | 6.0 | 0.00 | 0.00 | 0.00 | 33 | 1016.8 |
| 20260503203052 | 63 | 262 | 3.0 | 8.0 | 0.00 | 0.00 | 0.00 | 34 | 1021.2 |
| 20260503202724 | 63 | 268 | 3.0 | 8.0 | 0.00 | 0.00 | 0.00 | 35 | 1017.2 |
| 20260503202222 | 61 | 235 | 3.0 | 4.0 | 0.00 | 0.00 | 0.00 | 35 | 1017.1 |
| 20260503202046 | 61 | 251 | 3.0 | 8.0 | 0.00 | 0.00 | 0.00 | 34 | 1021.3 |
| 20260503201720 | 61 | 221 | 2.0 | 6.0 | 0.00 | 0.00 | 0.00 | 34 | 1017.1 |
| 20260503201217 | 62 | 227 | 5.0 | 9.0 | 0.00 | 0.00 | 0.00 | 34 | 1017.4 |
| 20260503201038 | 61 | 239 | 3.0 | 8.0 | 0.00 | 0.00 | 0.00 | 35 | 1021.5 |
| 20260503200713 | 60 | 235 | 4.0 | 9.0 | 0.00 | 0.00 | 0.00 | 35 | 1017.3 |
| 20260503200210 | 61 | 232 | 5.0 | 9.0 | 0.00 | 0.00 | 0.00 | 34 | 1017.3 |
| 20260503200030 | 62 | 239 | 4.0 | 7.0 | 0.00 | 0.00 | 0.00 | 33 | 1021.6 |
| 20260503195707 | 62 | 239 | 6.0 | 7.0 | 0.00 | 0.00 | 0.00 | 33 | 1017.5 |
| 20260503195204 | 62 | 249 | 1.0 | 6.0 | 0.00 | 0.00 | 0.00 | 34 | 1017.4 |
| 20260503195025 | 62 | 247 | 3.0 | 8.0 | 0.00 | 0.00 | 0.00 | 34 | 1021.7 |
| 20260503194701 | 62 | 232 | 6.0 | 11.0 | 0.00 | 0.00 | 0.00 | 33 | 1017.5 |
| 20260503194156 | 61 | 275 | 2.0 | 2.0 | 0.00 | 0.00 | 0.00 | 35 | 1017.5 |
| 20260503194017 | 61 | 238 | 3.0 | 7.0 | 0.00 | 0.00 | 0.00 | 35 | 1021.8 |
| 20260503193653 | 61 | 191 | 3.0 | 6.0 | 0.00 | 0.00 | 0.00 | 36 | 1017.6 |
| 20260503193149 | 61 | 280 | 2.0 | 7.0 | 0.00 | 0.00 | 0.00 | 34 | 1017.8 |
| 20260503193110 | 61 | 201 | 4.0 | 10.0 | 0.00 | 0.00 | 0.00 | 34 | 1022.1 |
| 20260503192645 | 62 | 199 | 6.0 | 11.0 | 0.00 | 0.00 | 0.00 | 33 | 1017.8 |
| 20260503192140 | 61 | 159 | 2.0 | 11.0 | 0.00 | 0.00 | 0.00 | 35 | 1018.0 |
| 20260503192042 | 62 | 212 | 4.0 | 9.0 | 0.00 | 0.00 | 0.00 | 33 | 1021.9 |
| 20260503191637 | 62 | 193 | 2.0 | 7.0 | 0.00 | 0.00 | 0.00 | 32 | 1017.8 |
| 20260503191134 | 62 | 237 | 3.0 | 6.0 | 0.00 | 0.00 | 0.00 | 35 | 1018.0 |
| 20260503191034 | 61 | 262 | 2.0 | 6.0 | 0.00 | 0.00 | 0.00 | 36 | 1022.3 |
| 20260503190631 | 61 | 202 | 1.0 | 4.0 | 0.00 | 0.00 | 0.00 | 35 | 1017.9 |
| 20260503190128 | 59 | 233 | 3.0 | 8.0 | 0.00 | 0.00 | 0.00 | 37 | 1018.1 |
| 20260503190027 | 59 | 222 | 6.0 | 10.0 | 0.00 | 0.00 | 0.00 | 35 | 1022.3 |
| 20260503185625 | 60 | 231 | 6.0 | 14.0 | 0.00 | 0.00 | 0.00 | 35 | 1018.0 |
| 20260503185120 | 60 | 161 | 3.0 | 8.0 | 0.00 | 0.00 | 0.00 | 35 | 1018.2 |
| 20260503185040 | 60 | 223 | 5.0 | 7.0 | 0.00 | 0.00 | 0.00 | 35 | 1022.5 |
| 20260503184615 | 60 | 246 | 3.0 | 9.0 | 0.00 | 0.00 | 0.00 | 36 | 1018.3 |
| 20260503184112 | 60 | 241 | 6.0 | 10.0 | 0.00 | 0.00 | 0.00 | 36 | 1018.2 |
| 20260503184052 | 59 | 234 | 3.0 | 8.0 | 0.00 | 0.00 | 0.00 | 37 | 1022.6 |
| 20260503183609 | 58 | 236 | 5.0 | 13.0 | 0.00 | 0.00 | 0.00 | 38 | 1018.4 |
| 20260503183106 | 58 | 277 | 5.0 | 9.0 | 0.00 | 0.00 | 0.00 | 37 | 1018.4 |
| 20260503183047 | 59 | 213 | 5.0 | 11.0 | 0.00 | 0.00 | 0.00 | 35 | 1022.7 |
| 20260503182604 | 60 | 342 | 4.0 | 6.0 | 0.00 | 0.00 | 0.00 | 34 | 1018.5 |
| 20260503182102 | 59 | 118 | 7.0 | 10.0 | 0.00 | 0.00 | 0.00 | 35 | 1018.5 |
| 20260503182041 | 59 | 243 | 3.0 | 11.0 | 0.00 | 0.00 | 0.00 | 37 | 1022.7 |
| 20260503181559 | 60 | 220 | 6.0 | 11.0 | 0.00 | 0.00 | 0.00 | 35 | 1018.5 |
| 20260503181055 | 58 | 48 | 1.0 | 9.0 | 0.00 | 0.00 | 0.00 | 39 | 1018.4 |
| 20260503181033 | 59 | 260 | 4.0 | 9.0 | 0.00 | 0.00 | 0.00 | 35 | 1022.8 |
| 20260503180552 | 59 | 139 | 2.0 | 2.0 | 0.00 | 0.00 | 0.00 | 35 | 1018.6 |
| 20260503180050 | 58 | 244 | 3.0 | 7.0 | 0.00 | 0.00 | 0.00 | 37 | 1018.4 |
| 20260503180026 | 58 | 244 | 4.0 | 7.0 | 0.00 | 0.00 | 0.00 | 37 | 1022.7 |
| 20260503175547 | 57 | 238 | 2.0 | 14.0 | 0.00 | 0.00 | 0.00 | 36 | 1018.6 |
| 20260503175044 | 58 | 239 | 5.0 | 6.0 | 0.00 | 0.00 | 0.00 | 37 | 1018.6 |
| 20260503175019 | 58 | 268 | 3.0 | 6.0 | 0.00 | 0.00 | 0.00 | 38 | 1022.8 |
| 20260503174541 | 58 | 51 | 1.0 | 4.0 | 0.00 | 0.00 | 0.00 | 39 | 1018.7 |
| 20260503174050 | 57 | 210 | 3.0 | 8.0 | 0.00 | 0.00 | 0.00 | 39 | 1023.0 |
| 20260503174037 | 57 | 188 | 0.0 | 6.0 | 0.00 | 0.00 | 0.00 | 39 | 1018.7 |
| 20260503173532 | 57 | 233 | 8.0 | 15.0 | 0.00 | 0.00 | 0.00 | 38 | 1018.7 |
| 20260503173040 | 56 | 228 | 1.0 | 2.0 | 0.00 | 0.00 | 0.00 | 40 | 1023.0 |
| 20260503173029 | 56 | 227 | 1.0 | 8.0 | 0.00 | 0.00 | 0.00 | 38 | 1018.8 |
| 20260503172527 | 57 | 179 | 5.0 | 7.0 | 0.00 | 0.00 | 0.00 | 36 | 1018.6 |
| 20260503172024 | 56 | 218 | 3.0 | 9.0 | 0.00 | 0.00 | 0.00 | 37 | 1018.9 |
| 20260503171520 | 57 | 196 | 6.0 | 8.0 | 0.00 | 0.00 | 0.00 | 38 | 1019.0 |
| 20260503171018 | 56 | 237 | 2.0 | 10.0 | 0.00 | 0.00 | 0.00 | 40 | 1019.1 |
| 20260503170514 | 56 | 260 | 3.0 | 10.0 | 0.00 | 0.00 | 0.00 | 38 | 1019.0 |